Location: Bayshore Village Mobile Home Park
(26.6945°N, 81.8642°W)
Time: 14:59:37
(UTC+00:00)

Cosmos 1726 - Pass Details

Date: 17 June 2021
Orbit: 480 x 496 km, 82.5° (Epoch: 26 July)

Event Time Altitude Azimuth Distance (km) Brightness Sun altitude
Rises 01:24:41 0° 20° (NNE) 2,538 5.9 -12.7°
Reaches altitude 10° 01:27:45 10° 49° (NE) 1,657 4.6 -13.3°
Enters shadow 01:29:28 13° 77° (ENE) 1,473 4.1 -13.6°
